Theta_e
308 308 309 308 308 309 310 310 309 309 310 310 311 311 312 314 315 313 313 314 315 317 321 321 321 322 320 319 319 318 318 319 320 319 317 319 321 320 320 320 321 321 321 321 320 320 322 323 323 324 323 321 320 318 318 319 321 322 320 317 317 320 322 321 322 323 322 318 312 313 315 313 314 316 315 317 318 318 317 316 318 320 319 318 317 317 316
305 305 305 306 306 306 306 307 307 307 308 309 310 312 313 314 314 313 312 314 315 318 320 320 320 320 318 318 319 317 318 319 318 319 318 319 320 320 320 320 320 320 319 319 319 320 320 321 321 322 323 320 317 317 318 319 319 319 319 320 321 320 320 321 321 320 321 318 314 315 316 315 315 316 315 314 314 314 313 311 313 316 316 316 315 316 315
303 303 303 303 303 303 304 305 305 306 307 308 309 312 313 313 312 313 313 313 315 317 318 318 319 320 319 319 319 318 318 318 317 318 319 319 321 320 320 320 319 319 319 318 319 319 319 320 319 319 320 319 316 315 316 316 317 317 317 320 320 318 319 320 319 318 318 318 317 316 316 314 313 313 312 311 310 311 311 311 313 313 313 315 315 315 313
303 302 302 301 301 302 302 303 304 305 306 307 308 309 311 313 312 311 312 313 314 316 316 316 318 318 318 319 319 319 319 318 317 317 318 318 319 319 319 319 318 319 319 319 319 318 318 318 318 319 319 318 316 314 313 314 315 315 314 317 318 318 317 317 318 317 316 316 316 313 313 314 313 312 311 309 308 308 309 310 311 311 311 310 310 311 311
302 302 301 300 300 300 301 302 303 304 305 306 306 306 309 312 312 311 311 313 314 316 316 316 317 317 318 318 318 318 319 318 318 317 318 318 317 318 319 318 318 319 318 318 318 318 317 317 318 318 318 316 313 311 311 312 312 312 311 313 315 316 314 314 315 315 314 314 313 310 310 313 314 312 311 310 308 306 307 308 308 308 308 307 306 306 306
302 301 300 299 299 299 300 300 301 302 304 305 306 308 308 309 311 311 311 313 315 315 315 316 316 316 317 316 317 318 318 318 319 318 317 317 317 318 319 317 318 319 318 318 318 318 318 317 317 316 315 315 313 310 311 311 310 311 310 310 313 316 315 312 312 313 312 310 310 307 306 308 309 308 309 309 307 305 305 305 305 305 305 304 303 303 304
301 300 299 298 298 298 298 299 299 300 301 302 304 307 307 307 308 309 308 311 314 314 314 314 315 316 316 316 316 317 317 317 318 318 318 318 317 318 318 317 317 317 317 318 318 318 318 318 317 316 314 314 314 313 313 311 308 310 310 309 310 313 313 311 310 312 311 308 307 306 304 305 306 305 305 305 304 303 303 304 303 302 302 302 302 302 302
301 300 298 298 298 298 297 298 297 297 298 299 300 303 304 305 306 307 306 307 310 311 312 313 314 315 315 315 314 315 316 316 316 317 318 318 317 317 317 317 317 316 316 317 317 316 317 316 316 315 313 313 312 313 314 310 307 308 309 308 307 309 311 308 306 309 309 305 304 305 304 304 304 303 303 301 301 302 302 302 302 302 302 302 301 302 302
301 300 299 298 298 298 297 297 297 296 297 297 298 300 300 299 299 302 305 308 308 309 311 312 314 314 314 314 314 313 314 314 315 315 315 316 317 316 317 317 316 315 314 315 317 316 315 316 315 313 312 312 311 313 313 310 308 308 307 307 307 308 309 305 303 308 308 301 301 303 302 302 302 302 301 299 299 300 300 300 301 301 301 300 300 301 301
301 300 299 299 299 299 298 298 297 297 296 295 297 298 297 297 296 297 302 307 307 307 310 312 313 313 313 313 313 314 314 314 315 315 314 313 313 313 315 316 315 315 314 314 314 311 310 311 308 306 307 309 309 310 311 309 309 308 306 307 307 306 307 306 305 308 305 299 300 303 302 302 302 300 299 298 298 298 298 299 300 300 299 300 301 300 300
301 300 300 300 299 299 299 298 298 297 296 295 296 296 296 297 298 298 300 305 306 306 309 311 312 313 312 312 313 313 313 314 314 314 313 311 308 309 312 313 312 313 312 307 304 302 301 301 301 301 303 306 306 307 307 306 307 307 306 307 306 304 306 306 304 306 304 299 299 302 301 301 301 299 300 300 298 298 298 298 299 299 299 301 301 300 301
301 301 300 300 300 299 299 299 298 298 297 296 295 295 295 296 298 298 300 303 304 305 307 309 310 311 311 312 313 313 313 314 313 312 312 309 306 306 307 309 312 311 305 300 299 299 301 301 300 301 302 302 303 304 305 305 305 305 305 306 305 304 305 305 303 304 302 298 298 301 301 300 299 298 300 300 298 298 299 298 298 298 298 299 299 300 300
301 301 300 300 300 299 298 299 299 298 298 297 295 295 295 295 296 298 299 301 302 303 305 306 308 308 309 312 313 311 311 311 309 309 310 307 305 306 303 304 308 305 299 298 300 301 303 301 300 300 299 298 299 300 301 303 304 304 304 304 304 303 304 304 302 301 300 298 299 301 300 298 298 297 297 296 296 297 297 298 298 298 297 297 298 299 298
302 301 301 300 300 299 299 298 299 298 298 297 296 295 295 295 295 297 298 299 299 301 302 303 304 304 307 310 309 307 306 306 305 305 305 303 304 304 300 298 301 299 297 300 302 303 303 302 301 302 300 299 300 298 297 299 300 302 303 302 302 302 302 303 302 300 300 300 300 300 298 297 297 297 295 295 297 299 299 298 299 299 298 297 298 299 299
302 301 301 301 300 300 299 299 299 298 298 297 297 295 295 295 295 295 296 297 298 299 300 301 303 304 306 307 307 306 304 303 304 302 298 297 299 299 296 294 294 295 298 302 302 301 302 303 304 304 302 301 302 299 296 294 294 296 299 300 300 300 301 302 302 300 299 299 298 298 297 296 296 296 296 296 297 300 301 298 298 300 299 298 299 300 300
302 301 301 301 300 300 299 299 299 299 298 298 297 296 295 295 295 294 295 296 298 298 298 298 301 304 305 303 303 305 305 304 303 301 298 297 296 295 294 293 292 294 298 301 298 298 301 302 302 304 303 300 298 296 294 293 291 291 295 298 298 299 299 300 300 300 299 298 298 298 296 296 297 298 297 294 294 299 300 297 298 300 298 296 297 298 300
300 300 300 300 300 300 299 299 299 299 299 298 297 296 295 295 295 294 294 295 296 297 297 297 298 301 303 303 302 302 302 301 300 301 302 299 295 294 295 296 295 296 298 299 298 298 301 300 298 300 299 296 294 294 294 294 293 293 294 297 298 299 299 299 299 299 298 297 297 297 296 297 298 298 295 292 293 297 299 297 297 299 296 295 296 297 300
299 299 299 299 299 299 299 299 299 299 299 298 297 296 295 295 295 294 295 295 295 296 297 295 295 298 301 303 303 300 298 299 300 300 299 296 295 296 296 296 297 298 298 299 299 299 300 299 297 299 299 294 292 293 294 294 295 295 295 296 297 297 298 298 298 298 298 298 297 296 296 298 298 296 295 293 294 296 296 296 297 297 295 295 297 299 300
298 299 299 298 299 299 299 299 298 298 298 298 297 297 296 296 295 294 295 295 294 296 296 293 293 296 296 297 299 297 295 297 300 299 298 297 296 296 295 295 297 298 297 298 298 298 299 299 297 297 299 295 291 293 295 295 295 294 294 295 295 296 297 297 298 298 297 297 298 297 297 299 299 295 292 292 294 295 296 297 298 298 297 294 294 297 298
298 298 298 298 299 299 299 299 298 298 299 298 298 297 296 296 296 295 294 294 293 295 295 293 293 294 294 294 297 297 296 296 297 298 300 299 295 295 297 298 297 296 295 297 298 296 297 299 296 293 295 296 293 293 295 294 293 293 295 295 295 296 296 295 296 298 297 297 297 296 296 296 295 293 292 292 295 299 300 298 295 296 297 296 294 294 294
298 298 298 298 298 298 298 298 298 299 299 298 298 297 296 296 296 295 295 294 293 294 296 294 292 292 293 294 296 296 297 298 297 298 298 296 294 296 300 299 298 296 295 296 297 295 294 297 296 293 294 295 293 293 294 295 294 293 293 295 296 296 297 296 296 296 296 296 296 296 297 295 293 294 295 294 295 298 301 299 296 294 295 297 296 294 291
298 298 298 298 298 298 298 298 299 299 298 298 297 297 296 296 296 296 295 294 293 294 294 294 293 293 293 294 294 293 295 296 295 295 295 293 293 295 296 295 296 296 294 294 295 295 293 294 295 295 294 293 293 292 293 295 295 292 290 293 295 296 296 297 297 296 295 296 298 298 297 294 292 294 296 296 294 295 296 297 297 296 295 294 294 295 292
298 298 298 298 298 298 298 298 299 298 298 298 297 297 296 296 296 296 296 294 293 293 293 293 294 294 294 294 294 294 294 293 293 293 293 294 293 292 292 293 294 293 292 293 295 297 296 295 295 295 294 293 293 293 292 292 294 294 292 293 295 295 292 292 295 296 293 293 296 295 293 292 292 292 294 295 294 294 294 295 295 295 295 293 292 293 294
298 298 298 298 298 298 298 298 298 298 298 298 298 297 297 297 296 296 295 294 294 294 294 294 294 294 294 294 294 294 294 293 294 293 293 294 294 293 293 293 292 293 294 293 294 296 296 294 293 293 293 293 293 294 293 292 292 293 293 293 294 294 291 289 293 295 293 292 293 292 291 293 293 291 292 292 292 292 292 292 293 293 293 293 292 292 292
298 298 298 298 298 298 298 298 298 298 298 298 298 297 297 297 297 296 295 294 294 295 295 296 295 294 294 294 294 294 294 294 294 294 293 293 293 293 294 292 291 293 294 292 291 294 296 295 294 293 294 293 293 294 294 293 292 292 292 294 294 293 292 292 292 292 291 292 292 291 291 292 291 290 291 291 291 291 290 290 291 291 291 291 290 289 290
298 298 298 298 298 298 298 298 298 298 298 298 298 298 297 297 297 296 295 295 295 295 295 296 296 294 294 294 294 294 295 294 294 294 293 292 292 292 292 292 291 292 292 292 293 296 297 296 296 295 295 294 294 295 295 294 293 292 291 292 293 292 292 293 293 291 291 291 291 290 290 291 290 290 290 289 290 290 290 289 289 289 289 290 288 286 287
297 298 298 298 298 298 298 298 298 298 298 298 298 297 297 297 297 297 296 295 296 296 296 296 296 295 293 293 294 294 295 295 294 293 293 293 293 292 291 293 294 294 293 293 294 295 295 295 294 294 295 294 293 294 295 293 293 294 293 292 292 292 291 292 292 292 292 291 291 291 291 291 291 290 290 290 289 289 288 289 289 288 288 289 289 287 286
297 297 297 297 297 297 298 298 298 298 297 297 298 298 298 298 297 296 296 295 296 297 297 296 296 294 293 294 294 294 295 295 294 293 293 293 293 292 291 293 295 295 294 293 293 294 294 294 293 293 294 294 293 293 293 292 293 293 293 292 291 291 291 291 291 291 291 291 291 291 290 290 291 291 290 290 290 289 289 289 289 288 288 288 288 289 288
297 297 297 297 297 297 297 297 297 297 297 297 297 297 296 297 297 296 295 295 295 296 296 295 294 294 295 295 294 293 294 295 294 293 292 292 292 291 291 293 294 293 293 293 294 294 294 294 294 294 294 294 294 294 293 292 293 293 292 292 291 291 291 291 290 291 291 291 291 290 290 290 290 290 291 290 289 289 289 288 288 289 289 288 288 288 288
296 296 297 297 297 297 297 297 297 297 297 297 296 295 295 295 296 296 296 295 294 295 295 296 295 294 294 294 294 293 293 293 293 293 291 291 291 291 291 292 293 293 294 294 293 293 294 294 294 295 294 293 294 294 294 293 293 292 292 292 292 291 291 291 291 290 291 291 291 290 290 290 290 290 290 290 288 288 288 288 288 288 286 286 287 288 286
295 296 296 296 296 296 296 296 297 297 297 296 295 295 295 296 296 296 296 296 295 294 294 296 296 295 294 294 294 293 292 292 292 292 291 292 292 291 291 291 292 293 294 294 293 293 294 295 294 293 293 293 294 294 294 293 293 292 292 292 292 291 291 291 291 290 291 290 290 290 290 290 289 288 289 290 288 286 287 288 287 285 285 285 285 285 284
295 295 295 295 295 295 295 295 296 296 296 296 295 294 294 295 295 295 296 296 295 294 294 295 295 296 296 296 293 291 291 292 292 292 292 293 293 292 292 292 293 293 293 293 294 294 294 294 294 293 292 293 294 293 293 293 293 293 292 292 292 292 291 291 290 290 290 290 290 290 290 290 289 288 289 290 289 286 288 288 285 283 284 284 282 282 282
294 295 295 295 295 295 295 295 295 295 295 295 295 294 293 294 294 294 295 296 294 293 294 295 295 295 296 294 291 290 291 292 293 293 293 293 293 293 293 292 292 293 294 294 294 294 294 294 294 293 293 293 293 293 293 293 293 293 292 292 292 291 291 291 291 290 290 289 290 290 290 290 290 289 288 290 289 287 287 286 284 283 283 284 284 284 281
294 294 294 294 294 294 294 294 295 295 294 294 294 294 294 294 294 293 294 294 293 293 293 294 295 296 294 291 291 292 292 293 294 294 293 294 293 293 293 293 293 293 294 294 293 293 293 294 294 294 293 293 293 293 293 292 293 293 292 292 292 292 291 291 291 290 290 289 289 289 290 290 290 289 288 289 289 286 284 283 284 285 285 286 287 285 281
293 293 293 294 294 294 294 294 294 294 293 293 293 294 294 294 294 294 294 294 294 294 294 293 294 295 294 292 292 292 292 293 294 294 293 294 294 293 293 293 293 294 293 293 293 293 293 293 294 294 293 293 293 293 293 293 293 293 292 292 292 292 292 291 291 290 289 289 289 289 289 289 289 289 289 289 289 288 286 285 284 285 286 286 285 282 280
293 293 293 293 294 294 293 293 294 293 293 293 293 294 294 294 294 293 294 294 294 294 294 293 293 294 293 293 293 292 291 293 294 294 293 294 293 293 293 293 294 294 294 293 293 293 293 293 293 293 292 293 293 293 293 293 292 292 292 292 292 292 292 292 291 290 290 290 290 290 289 288 289 289 288 288 289 288 287 285 283 283 284 285 284 282 280
293 293 293 293 293 293 292 292 293 293 293 293 293 293 293 293 293 293 293 293 293 292 292 293 294 293 292 292 292 291 291 293 294 294 294 294 293 293 293 293 294 294 293 293 294 294 292 292 293 292 293 293 293 293 293 292 292 292 292 292 292 292 292 291 291 291 290 290 290 290 288 287 287 288 288 288 287 285 285 285 284 283 284 285 283 281 278
292 292 292 292 292 292 292 292 292 293 293 293 293 292 291 290 291 291 292 292 292 292 292 293 293 293 292 293 293 291 291 293 294 293 293 293 293 293 292 293 294 294 293 292 293 293 292 291 292 292 293 293 293 293 293 292 292 292 292 292 292 292 291 291 291 290 290 290 290 289 287 286 286 286 285 286 286 285 283 284 283 282 282 283 280 277 274
292 291 291 291 291 291 292 292 292 292 293 291 291 291 290 289 289 290 291 291 292 292 292 293 293 293 292 293 292 291 291 292 293 293 293 293 293 293 292 293 294 294 293 293 293 292 292 292 292 292 292 293 292 293 293 292 292 292 292 292 292 291 291 291 290 290 290 290 290 290 289 287 287 287 286 285 285 284 282 281 280 277 276 274 271 270 271
291 291 291 291 290 290 292 292 292 292 292 290 290 290 290 290 290 290 290 291 292 291 292 293 292 292 292 292 291 291 292 292 292 292 292 292 293 292 292 292 293 293 292 293 293 292 291 292 292 292 292 292 292 292 292 292 292 292 292 292 292 291 291 290 289 289 289 289 289 290 289 288 288 288 287 286 285 284 282 279 274 270 267 266 265 265 267
290 290 290 290 290 291 292 292 290 290 289 289 289 290 290 290 289 288 289 290 291 291 291 291 292 292 292 292 291 291 291 291 292 291 291 291 291 291 291 292 292 291 292 293 292 289 287 289 291 292 292 292 292 292 292 292 292 292 292 291 291 290 290 289 288 286 285 288 290 286 281 282 284 283 282 283 284 282 280 276 270 264 262 263 263 262 263
290 290 290 290 290 290 290 289 287 287 287 288 288 290 290 288 287 287 288 290 291 291 290 290 291 292 291 291 292 292 291 290 291 291 291 291 291 291 291 291 290 290 291 291 289 287 286 288 290 291 292 292 292 292 292 292 292 291 291 291 290 289 288 289 289 282 276 280 286 281 271 270 272 269 267 270 272 271 269 269 265 261 260 262 262 262 262
290 290 289 289 288 288 289 289 287 287 288 288 289 289 289 288 288 289 290 289 290 291 290 289 290 291 291 290 291 292 291 290 291 291 291 291 291 290 290 291 290 290 289 289 288 288 289 290 291 291 291 291 291 292 292 291 290 291 289 286 284 282 282 283 284 276 267 266 271 269 262 260 261 260 259 263 266 264 261 261 261 260 260 261 261 261 261
288 288 288 288 288 288 289 289 289 288 288 288 288 289 290 289 289 291 291 290 289 290 290 289 290 290 291 291 291 291 291 291 291 291 291 290 289 289 289 290 290 289 289 288 289 290 290 291 291 291 291 291 291 291 290 289 289 290 288 281 275 274 276 277 276 273 267 262 261 260 258 256 257 258 258 261 263 262 259 257 258 260 261 260 260 260 260
287 288 288 288 288 288 289 288 288 288 289 288 289 290 290 290 290 290 289 289 289 290 289 289 290 290 290 290 290 291 291 290 291 291 290 289 289 290 290 289 289 289 289 290 290 289 290 291 292 291 290 291 291 289 289 289 287 286 285 281 274 272 274 275 272 271 269 264 260 260 260 258 256 256 256 257 259 260 259 258 259 260 260 259 259 258 258
287 288 288 287 287 288 288 288 287 288 289 290 290 291 291 291 291 290 289 288 289 290 289 288 289 290 289 288 288 289 290 290 290 290 289 289 290 289 288 288 288 288 289 290 290 290 290 290 290 290 290 290 290 289 287 285 281 280 282 282 276 270 269 270 268 265 263 260 258 259 259 257 256 256 256 256 257 259 259 258 259 260 259 258 258 257 257
287 287 287 287 287 287 288 288 287 287 288 289 291 292 291 290 290 289 287 287 289 289 287 287 289 289 289 288 288 288 288 289 290 289 289 289 289 288 287 288 288 288 289 290 290 290 290 290 290 291 290 289 289 288 284 279 276 276 278 277 272 267 265 265 264 262 260 259 259 258 257 256 256 256 255 255 256 257 257 258 258 259 259 258 257 257 257
287 287 287 287 287 288 288 288 287 287 286 286 286 286 286 287 289 288 286 285 287 288 288 288 289 289 288 287 288 287 286 287 288 289 288 288 288 287 286 287 287 287 288 289 289 289 290 290 288 286 282 280 281 284 280 274 272 272 272 270 267 264 263 263 261 259 258 258 258 257 256 255 255 256 255 255 255 256 256 257 258 258 258 258 257 257 257
284 285 285 285 286 287 286 286 287 288 287 285 283 283 285 288 289 288 285 285 287 287 287 287 288 288 286 285 286 286 287 287 287 288 287 287 287 287 287 287 287 287 288 289 290 290 287 281 276 273 272 271 272 274 272 268 267 267 266 265 263 261 260 260 259 257 257 257 256 256 255 255 255 255 255 256 255 255 256 257 257 257 258 257 257 257 257
282 284 283 283 285 285 283 283 286 289 287 285 285 286 286 288 289 286 284 285 287 286 285 286 287 286 285 285 286 286 287 287 287 287 287 287 287 287 287 287 288 289 289 288 287 283 276 269 267 268 268 267 266 266 265 264 263 263 261 260 259 258 258 258 257 256 255 256 256 255 255 255 255 255 256 256 256 256 256 256 257 257 257 257 257 257 257
283 283 283 283 284 285 284 284 286 287 286 286 287 286 285 287 289 285 281 283 286 287 286 287 287 286 285 285 287 286 286 286 286 287 287 287 286 286 287 288 289 290 289 284 276 270 265 263 264 266 266 264 262 262 261 260 260 259 258 258 257 256 256 256 255 255 255 255 255 255 255 255 255 255 256 256 256 256 256 256 256 257 257 257 257 257 257
283 283 282 281 281 281 283 284 286 286 285 285 284 283 283 284 284 280 277 281 286 288 286 285 286 285 285 285 285 285 285 286 286 286 287 287 286 287 290 291 288 284 282 279 271 264 261 260 261 262 262 262 261 259 258 258 258 258 257 256 256 256 255 255 255 255 254 254 254 254 254 254 255 256 256 256 256 257 257 256 256 256 256 256 256 257 257
Wind_Speed
21 22 21 22 21 21 22 23 23 26 27 26 24 16 5 2 1 1 8 23 23 9 4 6 4 3 3 2 2 3 3 3 4 4 3 3 3 2 2 4 4 4 4 4 5 4 3 4 5 4 4 4 3 2 4 2 3 3 2 1 0 2 3 1 3 3 3 3 4 5 3 4 2 2 1 4 3 3 4 5 3 2 2 1 1 5 5
18 19 19 20 19 19 20 20 23 25 26 26 23 11 2 3 2 2 7 20 19 6 4 7 5 3 1 2 2 2 2 4 5 6 6 4 4 4 3 4 4 4 4 5 5 6 4 4 6 5 4 3 1 2 3 4 2 2 2 2 1 0 1 2 1 3 5 4 3 4 4 0 2 2 1 2 3 5 3 1 2 1 3 4 4 7 5
15 16 17 17 17 17 17 19 23 25 24 23 18 7 2 3 2 2 3 12 11 4 2 4 5 6 4 3 4 3 1 4 7 7 6 4 4 4 3 4 5 4 4 4 5 7 6 4 3 3 4 3 2 3 2 3 3 2 2 4 4 2 2 3 3 6 8 6 4 2 1 1 1 1 2 2 4 6 3 1 2 2 3 5 5 7 3
14 15 16 15 14 15 16 18 21 22 21 20 13 6 4 3 1 1 1 4 5 3 1 1 3 7 7 4 4 6 5 3 5 7 5 4 5 3 2 3 4 3 5 5 6 8 7 5 3 3 4 3 2 2 2 1 3 3 4 4 4 3 2 4 7 9 9 6 5 4 3 3 2 2 4 5 4 5 5 3 3 3 2 3 7 5 2
13 14 14 13 12 13 14 15 18 20 20 18 12 6 3 2 2 4 3 2 5 5 3 3 3 4 6 5 4 8 10 4 3 6 6 5 7 4 1 4 5 5 7 6 6 7 7 6 5 4 4 2 1 1 3 3 2 4 4 2 3 4 3 5 7 8 6 3 4 4 3 4 5 4 5 7 5 6 6 4 4 4 2 6 8 4 3
12 12 12 12 12 12 12 13 15 17 19 19 12 4 0 1 2 3 2 1 5 7 6 7 6 4 5 5 3 5 10 7 5 5 3 2 6 5 2 5 10 10 9 7 6 6 6 7 7 5 3 3 2 1 2 1 2 4 3 1 3 5 4 4 4 5 5 2 4 4 3 3 4 6 8 10 7 6 7 7 8 7 6 9 9 5 7
13 12 12 12 12 11 10 11 12 14 17 18 11 2 0 2 0 1 0 1 3 5 6 8 9 9 7 4 5 7 9 10 7 5 3 1 5 8 7 9 12 12 10 9 8 8 8 8 8 7 4 4 4 2 1 1 2 4 3 0 2 3 3 3 4 4 4 2 4 4 4 3 4 7 10 10 8 6 7 9 11 9 8 11 11 10 11
15 14 13 13 12 11 10 10 11 11 14 15 7 1 1 2 0 1 1 1 1 1 3 6 8 10 8 7 9 9 9 11 8 5 6 6 6 9 12 13 11 11 12 11 12 13 12 11 10 9 8 6 5 3 3 2 3 3 2 1 0 1 1 1 3 2 5 1 4 4 3 3 4 9 11 8 4 5 10 11 9 6 8 11 10 10 12
18 17 15 13 12 12 11 10 10 10 12 11 4 1 2 3 2 2 2 2 3 2 3 6 7 8 9 9 10 9 11 14 11 4 6 9 7 9 15 15 9 8 11 14 16 15 12 11 10 10 10 8 4 3 4 6 5 3 3 2 0 1 1 1 3 2 5 2 3 4 2 3 5 13 14 9 6 8 10 7 6 8 10 10 8 7 9
20 19 18 16 15 15 14 12 12 12 11 9 4 1 3 4 2 2 2 2 3 3 3 5 7 7 9 11 11 11 12 11 9 5 3 3 4 6 12 14 8 7 13 16 14 8 5 6 6 5 5 5 5 3 3 6 7 6 5 2 0 3 3 1 3 3 4 4 2 1 5 5 7 11 10 10 10 11 9 6 8 10 8 6 7 7 7
22 22 20 19 19 18 16 16 15 15 14 12 6 2 3 4 2 2 2 2 3 3 4 6 8 8 9 11 11 11 10 7 8 8 4 2 1 1 5 10 8 6 9 8 5 7 8 6 5 6 9 9 7 5 5 5 4 5 6 3 1 3 5 3 3 3 3 4 0 4 1 5 8 4 4 8 10 11 10 10 11 10 7 5 6 6 5
24 24 23 22 21 19 17 18 18 18 17 15 10 6 5 7 4 2 3 4 4 3 4 7 7 7 7 9 10 10 10 8 6 6 4 2 1 3 1 6 7 5 5 8 11 11 9 6 7 9 10 9 7 6 6 3 0 1 4 5 4 4 5 3 2 3 2 2 3 1 7 9 5 3 1 5 7 7 8 8 9 9 8 7 6 7 7
26 26 26 25 23 21 19 19 20 20 18 16 13 10 9 8 4 2 2 4 4 4 4 4 4 3 3 6 8 7 5 3 2 3 3 2 1 1 1 2 4 4 6 10 10 9 7 5 6 5 5 6 6 5 2 2 4 3 2 3 5 6 4 2 2 2 1 2 4 6 7 6 8 7 2 2 2 2 2 5 8 9 9 7 7 9 9
28 28 28 26 24 23 22 21 22 21 20 19 16 14 12 10 6 2 2 2 3 2 3 3 4 4 4 4 5 2 3 4 4 4 2 1 2 2 1 2 2 6 7 5 5 5 4 3 3 2 3 4 3 3 2 2 5 7 7 5 5 6 4 2 2 3 2 3 5 4 4 8 12 9 3 3 3 5 5 3 8 8 6 7 7 8 9
24 26 27 26 25 24 23 22 23 23 23 22 20 17 15 13 9 4 1 2 2 1 3 4 4 4 5 4 5 5 3 3 3 3 2 2 2 0 2 3 0 3 3 3 3 3 2 2 3 1 0 0 1 2 2 1 3 4 5 5 3 5 5 4 4 3 3 3 4 4 3 7 11 7 3 2 3 6 7 2 5 7 6 7 8 7 6
21 22 24 25 24 24 23 23 23 23 23 24 23 20 18 15 13 8 3 2 2 3 3 4 4 4 4 3 4 6 4 4 4 3 2 2 2 1 2 2 2 2 3 3 3 2 3 2 3 3 3 4 4 1 1 0 2 4 2 2 3 2 2 4 4 3 2 4 5 5 5 8 8 6 5 3 5 6 7 3 5 7 6 7 7 6 6
22 22 22 23 22 22 22 23 23 23 23 25 25 22 20 18 17 12 5 2 3 3 2 3 3 3 3 2 2 3 3 3 3 3 2 2 1 1 2 3 3 3 2 3 2 2 4 2 2 2 3 3 5 3 1 2 2 1 2 4 4 3 2 3 4 6 6 6 5 4 5 6 5 5 4 3 4 6 8 1 8 6 4 7 8 7 7
24 23 23 23 22 22 23 24 25 24 24 27 27 24 22 20 19 15 6 3 2 3 3 2 3 2 3 4 3 3 3 4 3 2 2 2 1 2 2 0 1 1 0 2 2 2 4 2 1 3 4 3 3 3 3 3 3 3 3 5 3 2 2 3 6 8 9 8 6 4 4 5 5 5 6 5 3 6 3 6 7 5 6 7 8 8 8
25 24 23 23 23 23 24 25 25 25 25 27 26 23 21 22 22 17 8 3 3 5 4 1 3 2 2 2 2 1 1 3 4 4 4 1 2 3 2 1 0 1 1 2 2 2 3 3 2 3 3 3 3 3 3 4 3 3 5 5 2 2 1 2 4 6 6 6 5 4 5 5 6 4 3 4 4 1 5 7 3 6 8 7 7 8 7
26 25 24 23 23 23 24 24 24 25 25 27 27 22 20 23 25 22 13 5 2 3 5 5 4 4 2 1 3 2 2 2 2 4 5 4 4 5 4 1 2 1 1 3 3 1 3 3 3 2 3 4 3 3 1 3 3 4 6 5 4 6 4 3 4 4 3 3 4 4 6 5 9 9 1 1 4 6 5 3 2 5 7 7 7 8 7
26 26 25 25 24 24 24 23 24 25 24 26 27 23 20 23 25 24 21 12 4 1 4 6 7 9 6 5 5 4 4 5 5 4 4 3 4 6 4 4 5 3 2 4 4 1 2 3 2 2 2 2 2 2 3 1 3 3 4 3 2 4 5 4 5 3 4 4 6 5 4 4 9 10 5 6 9 7 4 4 4 4 4 5 6 7 7
26 26 26 26 25 25 25 24 25 25 24 26 29 24 18 21 25 25 24 17 6 3 5 3 4 7 9 8 7 4 3 5 6 6 7 4 3 3 3 3 5 4 2 4 4 1 2 3 3 2 2 2 2 3 3 4 2 4 1 3 3 6 6 5 4 3 4 5 6 5 2 3 7 8 7 9 10 7 6 6 5 4 4 5 5 6 7
25 25 25 26 26 26 26 26 25 26 26 27 30 27 20 20 25 26 23 15 6 5 9 8 7 8 8 8 8 8 7 5 4 8 11 9 3 1 2 3 3 2 2 3 4 4 3 3 4 3 2 3 4 2 1 3 3 3 2 2 5 5 4 3 1 1 2 3 4 3 2 2 6 9 7 7 7 5 6 6 5 5 6 5 5 7 8
24 24 23 24 25 26 26 26 25 26 27 26 28 29 25 22 24 24 18 9 3 3 5 6 6 5 6 9 12 13 13 10 7 9 14 13 7 1 2 4 4 2 2 4 3 4 4 2 2 3 2 3 4 5 3 5 4 3 3 2 5 3 3 3 2 2 2 2 3 5 5 5 7 9 9 7 7 5 6 6 6 6 7 7 7 8 9
24 24 23 23 24 24 25 25 25 25 27 26 25 26 25 22 24 26 18 7 3 3 2 3 6 9 12 12 11 14 17 17 13 12 14 15 11 6 5 6 6 4 3 4 3 4 3 2 2 2 4 4 3 4 4 4 4 4 4 4 4 2 3 3 4 5 4 4 6 6 6 5 6 7 7 6 8 8 6 6 7 7 7 7 8 8 8
24 24 23 23 23 23 23 24 24 24 26 27 26 27 26 23 26 29 21 8 2 1 3 3 3 7 13 11 11 15 19 21 19 15 13 14 13 11 9 7 4 3 3 3 3 4 4 3 3 3 4 3 3 4 3 3 3 3 5 6 2 2 2 3 4 4 3 5 8 5 2 6 8 8 8 8 8 9 8 7 7 7 8 8 8 8 9
25 24 24 23 23 23 23 23 23 23 25 25 25 27 28 26 29 33 30 18 6 1 5 5 1 3 8 10 13 18 19 20 23 19 15 15 14 12 11 9 4 3 5 3 1 2 4 2 2 3 4 2 2 3 2 2 3 2 4 5 2 2 4 3 3 3 4 7 9 6 3 5 9 10 11 11 10 9 9 9 8 8 10 10 10 10 10
25 25 24 23 23 23 22 22 22 23 22 22 22 25 27 28 31 35 37 32 16 2 1 4 1 0 2 5 13 20 20 21 25 23 19 19 17 15 12 9 5 4 5 3 2 2 3 3 3 2 3 2 1 1 1 1 2 1 5 6 4 6 8 6 5 6 8 9 9 7 6 7 9 9 9 9 7 7 9 11 11 11 11 11 10 11 11
25 25 24 24 24 24 22 22 22 21 19 19 19 19 19 23 29 32 33 33 22 5 3 2 1 0 1 2 9 18 22 23 26 25 20 18 17 14 11 7 6 6 5 4 4 3 3 4 3 2 3 3 3 2 2 2 2 4 9 11 11 12 12 10 8 8 9 11 10 7 7 8 10 10 10 9 7 7 9 11 11 11 10 10 10 11 11
21 22 22 22 22 23 23 24 23 21 20 19 15 8 4 10 23 31 31 32 28 12 2 1 2 0 0 1 4 11 18 20 21 21 18 14 12 12 11 9 6 4 4 3 4 4 3 2 3 3 3 5 4 3 3 4 4 6 11 15 17 16 13 10 10 10 11 12 10 6 7 8 9 8 8 9 7 7 7 8 10 10 11 11 10 9 11
18 19 18 17 17 18 19 21 20 19 21 20 13 4 0 3 14 26 32 34 31 16 2 1 2 0 1 2 4 9 16 19 16 14 14 13 12 13 14 10 5 4 5 4 4 4 3 4 3 3 4 6 5 3 3 4 4 7 13 18 18 17 13 10 10 11 12 12 8 3 4 7 7 4 6 11 11 8 6 7 10 12 13 13 13 12 13
18 18 17 16 15 15 15 15 15 15 21 24 16 6 3 5 3 13 29 36 28 12 2 1 2 1 1 2 3 7 13 15 11 7 8 10 10 9 9 8 4 4 6 4 2 2 4 5 4 4 5 6 5 3 4 6 7 12 18 20 17 13 10 9 10 10 10 10 9 5 5 10 10 9 12 15 12 7 7 9 13 16 15 12 12 13 13
18 17 17 16 15 14 13 13 13 13 17 21 18 11 7 1 5 2 20 30 20 6 2 3 2 2 3 1 2 3 8 7 5 4 5 6 6 4 4 5 4 3 5 5 3 2 2 4 5 6 3 4 4 2 4 8 13 19 22 19 13 9 8 8 8 9 10 9 9 9 12 16 14 10 10 11 10 8 10 11 11 11 9 7 8 10 9
17 16 17 16 15 15 14 12 13 13 11 10 11 11 14 14 7 2 14 19 9 2 2 3 1 2 3 3 4 4 9 6 3 4 4 3 5 4 3 3 3 3 5 5 3 1 1 3 5 5 2 3 3 3 4 11 21 24 21 15 11 10 9 7 6 10 12 9 8 10 14 14 10 5 4 6 8 8 9 8 7 6 6 7 9 8 6
17 17 17 15 13 15 14 11 11 10 8 5 5 7 11 14 9 6 13 15 5 2 1 2 1 2 3 1 2 5 8 6 3 4 4 3 4 4 2 2 3 4 4 3 3 3 4 3 2 3 2 3 4 4 7 15 22 21 15 12 12 11 11 11 11 13 11 6 6 8 10 9 8 8 8 8 8 8 7 6 6 7 7 8 9 7 5
19 16 15 14 14 13 11 9 9 9 6 4 5 6 8 11 9 9 15 17 9 2 1 2 1 2 4 3 3 3 4 4 2 3 3 2 2 3 2 2 3 3 1 2 2 5 5 3 2 3 3 3 5 9 13 17 19 15 12 12 13 14 15 17 17 14 7 6 8 10 9 8 10 10 10 10 9 7 7 6 6 7 8 9 9 7 6
19 17 15 14 12 8 4 4 7 9 7 8 9 9 10 11 10 9 11 12 8 4 2 2 2 3 3 2 2 1 3 3 1 2 3 2 1 2 2 3 3 2 1 2 5 5 4 3 3 4 5 6 9 14 16 16 15 12 10 12 14 15 16 16 14 10 6 5 8 8 7 7 10 9 8 10 9 6 7 8 8 9 10 11 9 7 7
18 18 16 11 6 3 2 4 7 10 13 15 15 10 6 6 4 3 4 4 4 4 3 2 3 2 2 1 2 3 4 3 2 1 2 2 1 1 1 2 3 2 2 3 4 2 3 2 3 5 7 8 13 17 18 15 12 9 10 13 15 15 14 13 10 9 9 10 11 9 7 7 9 9 8 10 10 8 8 9 9 8 8 9 7 6 7
20 16 10 6 3 2 3 6 11 16 17 16 11 5 2 2 2 1 1 2 2 2 3 3 4 4 4 3 2 2 2 3 2 2 2 1 1 2 2 2 2 2 2 3 2 3 2 3 3 4 6 9 14 19 18 13 10 10 12 14 15 15 14 10 8 11 13 13 14 12 9 9 10 11 10 9 10 9 7 7 6 6 5 5 6 7 6
17 10 4 2 3 4 7 13 19 20 14 6 2 2 1 2 2 2 2 2 2 2 3 3 3 4 6 6 4 2 2 4 4 3 3 2 2 2 2 1 1 3 3 4 2 3 3 3 3 4 7 10 14 17 15 11 11 13 13 15 16 16 13 9 8 9 11 11 11 10 8 9 10 10 9 8 9 9 7 5 5 5 6 6 7 7 7
11 6 3 4 6 9 13 17 16 11 5 1 1 2 2 1 1 0 1 2 2 2 1 2 3 4 6 7 5 4 3 3 2 2 2 2 1 2 2 2 1 1 2 4 2 3 2 2 3 5 8 10 13 13 10 9 11 14 14 15 14 11 7 7 7 7 7 9 9 6 3 4 4 3 3 5 7 6 5 4 5 6 8 9 9 9 11
12 10 9 10 10 10 10 8 4 1 2 2 1 1 1 1 1 0 1 2 3 2 1 2 4 5 5 5 5 4 2 2 2 2 2 2 1 2 2 1 0 1 2 2 2 3 1 2 3 5 7 10 12 10 8 9 12 14 13 12 9 6 7 8 8 6 4 5 6 3 3 4 3 3 2 4 6 6 5 6 7 8 10 12 13 13 13
17 16 13 10 6 4 2 2 1 1 2 2 1 2 2 1 1 1 2 2 1 1 1 1 1 1 1 2 2 1 1 3 3 2 1 2 1 2 2 1 2 2 1 1 2 2 3 3 4 5 7 9 10 9 9 11 11 9 6 3 1 3 4 6 6 4 3 3 5 6 6 6 6 6 6 8 11 10 8 8 10 13 14 14 14 14 12
17 13 7 3 1 1 1 1 1 2 2 3 3 3 3 3 2 3 3 2 2 2 3 2 3 3 3 2 1 1 1 2 2 1 1 1 1 2 2 3 2 1 1 1 2 2 2 3 5 7 9 9 9 9 9 10 9 7 3 1 4 4 3 4 6 6 5 6 7 8 8 9 9 9 9 9 11 12 11 11 12 15 15 14 14 12 10
9 4 2 1 1 2 2 1 1 2 3 4 4 4 5 5 5 5 4 3 2 3 3 4 5 5 4 2 1 1 2 1 1 1 2 1 1 2 3 2 1 1 1 2 2 2 2 4 7 9 10 12 12 9 7 6 5 5 5 2 2 3 5 6 6 6 5 5 6 7 8 7 7 8 10 11 11 14 14 13 13 14 14 13 12 11 8
2 1 3 3 2 2 2 2 1 1 2 4 4 4 5 6 5 5 4 2 3 4 4 5 6 6 4 2 0 1 2 2 2 2 2 2 2 2 1 1 1 1 2 3 4 4 6 8 9 9 11 13 11 5 3 4 3 4 5 5 5 5 5 6 6 6 5 6 6 7 7 7 8 9 10 12 12 12 13 13 13 13 12 11 11 9 7
1 2 2 1 2 2 2 2 3 2 2 3 4 5 5 4 3 2 2 2 4 4 4 3 2 2 2 1 1 1 1 1 2 2 2 2 1 1 1 1 1 2 3 5 6 6 7 8 9 8 8 7 4 3 4 4 4 4 5 5 6 6 6 6 7 7 6 7 7 7 6 8 10 10 11 11 11 11 12 12 10 10 10 10 10 8 7
2 3 2 2 2 2 3 3 2 2 1 1 1 2 2 3 3 2 1 2 4 5 4 3 2 1 0 1 1 1 1 0 1 2 1 2 1 1 1 1 2 2 2 5 7 8 7 6 5 4 4 3 1 4 4 3 4 5 5 6 7 7 7 7 7 7 7 8 8 7 7 9 11 12 11 11 10 10 10 10 9 9 9 8 8 6 5
2 2 1 1 1 1 2 2 4 3 2 2 2 1 1 3 4 4 2 2 3 4 4 3 3 2 0 0 1 1 1 1 1 1 1 1 1 2 2 3 3 3 3 5 6 5 4 3 3 3 4 4 3 2 3 3 3 4 5 6 6 6 7 7 8 8 9 9 9 8 10 11 12 12 11 10 9 9 10 9 8 7 6 5 5 4 3
2 1 1 1 1 1 0 2 3 4 3 2 1 1 1 2 3 3 1 2 4 3 3 2 2 2 1 1 1 1 2 2 1 1 1 2 3 2 2 2 4 4 4 4 4 2 2 2 3 3 4 4 3 2 2 3 4 5 5 6 6 6 7 8 9 9 10 10 11 12 12 12 11 11 10 10 11 11 9 7 6 5 4 4 3 3 2
1 0 0 1 2 2 2 3 4 5 4 4 4 4 2 3 4 2 1 3 4 4 2 2 2 2 2 1 2 2 1 1 1 1 1 2 2 2 2 4 5 4 4 4 2 1 2 2 2 2 3 2 2 2 3 4 5 5 5 6 7 8 9 10 10 10 11 11 12 12 12 11 11 12 12 12 12 11 8 6 5 5 4 4 3 1 1
1 1 0 1 2 1 1 1 2 3 3 3 4 3 2 3 4 3 0 3 5 4 3 2 2 3 2 2 2 1 1 1 1 2 2 1 2 3 4 5 4 3 2 2 1 1 1 2 3 2 2 1 2 2 4 5 6 5 5 7 8 8 8 8 9 11 11 11 11 12 12 12 12 12 11 11 9 8 6 6 6 5 4 3 2 0 1
Wind_Direction
142 146 149 151 153 156 160 162 163 161 161 159 154 146 128 104 120 82 181 181 178 178 213 190 173 220 216 139 121 153 150 155 171 173 163 158 153 144 180 186 186 198 186 173 176 176 187 199 200 218 227 220 235 220 196 165 94 99 133 209 19 69 95 182 273 300 307 322 357 9 23 90 104 275 156 138 168 153 170 209 184 170 250 219 227 255 251
134 138 144 146 147 150 154 160 162 162 164 161 151 141 115 126 117 37 187 187 186 198 221 195 193 207 152 114 171 156 140 172 174 179 186 177 151 161 188 188 195 204 174 165 183 181 189 223 212 204 206 214 310 327 226 200 136 133 191 183 177 187 132 128 206 289 307 316 333 352 347 66 163 247 222 142 127 108 103 174 123 163 224 187 217 251 239
137 137 139 140 143 146 147 153 161 164 168 163 151 132 84 115 101 17 198 197 201 222 222 197 205 200 187 186 177 162 190 193 185 183 183 175 156 163 188 177 173 178 161 168 194 192 197 224 220 187 196 231 335 350 280 203 173 202 199 151 143 173 180 148 175 228 244 243 229 235 263 223 174 215 211 190 140 132 134 141 152 209 203 169 215 247 250
142 140 140 140 142 147 149 153 162 167 170 162 143 113 109 122 130 140 172 217 226 244 184 151 215 206 200 208 192 192 207 204 184 184 188 193 181 172 170 155 150 165 167 173 206 216 212 210 195 174 189 227 289 355 10 122 156 155 132 125 110 110 200 205 200 223 233 219 211 207 153 155 209 232 208 205 185 147 130 120 162 196 196 217 232 227 247
147 141 142 143 142 147 152 158 166 172 173 164 137 95 97 126 156 169 161 191 216 229 213 186 206 198 190 200 202 200 205 204 177 193 202 196 185 189 182 161 176 186 176 183 210 217 213 207 196 182 175 199 283 18 59 78 107 122 119 103 87 108 222 232 209 230 241 164 167 190 150 167 204 225 237 231 199 143 141 181 198 152 154 249 245 193 191
156 150 147 144 139 141 150 161 171 176 179 171 148 100 55 141 155 187 162 150 203 213 207 198 202 197 191 202 218 207 206 203 195 195 189 161 183 199 215 200 206 196 176 182 204 202 207 214 205 192 166 153 148 35 36 57 56 78 84 26 90 126 232 234 182 234 258 133 146 173 156 178 208 217 239 247 231 172 164 211 217 179 196 247 252 216 209
166 162 157 149 140 138 146 161 171 179 186 180 161 122 140 118 88 249 319 30 211 208 196 190 204 213 207 212 231 221 211 209 205 175 123 132 199 198 207 216 214 204 188 186 199 200 201 212 208 190 172 168 160 145 252 263 62 82 99 53 101 129 237 213 163 225 262 178 171 188 174 195 231 233 234 240 240 210 197 226 232 213 220 245 254 255 251
175 172 169 159 147 141 145 158 167 176 185 182 169 105 145 138 162 192 102 320 255 218 181 177 202 217 211 215 226 222 218 218 213 176 167 199 202 192 210 219 209 202 199 198 210 212 202 206 205 180 171 187 182 176 195 164 93 94 136 198 288 124 206 179 145 222 282 261 175 196 181 177 234 257 250 233 208 220 231 238 241 233 237 244 247 257 265
184 181 176 169 160 154 152 157 167 176 180 176 170 284 139 107 62 92 140 205 189 168 180 179 196 213 210 217 221 214 220 220 216 214 208 209 202 189 206 217 207 195 205 211 221 220 201 198 200 178 173 185 179 182 186 155 142 158 164 171 245 148 189 23 85 183 274 303 182 216 25 41 282 270 260 240 211 229 241 234 218 223 236 245 247 246 256
192 188 181 177 174 171 167 170 177 183 182 169 150 190 150 113 55 67 114 207 197 173 183 186 197 211 210 215 216 214 223 216 200 214 239 203 208 203 203 208 201 194 210 218 222 211 166 164 172 150 130 114 99 108 140 142 150 161 160 156 138 143 155 127 118 172 269 300 209 182 41 18 283 263 246 232 233 241 249 248 234 226 215 219 234 235 239
196 193 190 188 185 184 185 187 187 188 190 185 172 172 155 142 126 78 96 231 222 174 182 197 204 214 211 209 215 222 223 200 188 211 223 143 169 263 197 196 199 207 213 206 155 111 107 108 108 93 80 75 71 71 84 99 128 153 149 140 137 142 143 162 161 159 252 273 56 68 31 254 258 257 176 199 221 230 232 240 241 229 204 208 236 245 245
200 199 200 197 192 193 196 194 193 194 197 198 193 185 160 147 142 100 130 213 221 169 190 216 217 223 219 205 210 222 218 204 198 210 203 157 30 5 115 183 196 217 188 145 123 117 111 82 59 55 53 57 57 50 61 82 45 184 142 138 152 159 148 159 152 127 196 224 90 114 239 242 267 331 112 190 211 214 220 244 252 238 226 228 243 252 247
204 201 202 201 198 199 199 197 198 200 202 203 199 195 182 164 151 104 132 205 227 181 192 245 264 252 227 193 198 214 206 170 98 95 126 137 130 50 31 188 191 181 151 136 125 114 100 66 55 55 35 32 35 25 29 198 226 244 210 157 157 161 159 160 155 143 153 147 162 214 247 283 298 286 241 159 204 185 202 275 267 245 227 209 220 246 245
208 205 206 206 203 200 200 201 201 201 203 205 204 204 197 180 167 141 130 197 238 195 190 254 276 237 210 181 166 142 95 102 83 64 75 101 127 131 320 289 187 157 151 131 84 76 92 73 58 47 11 21 16 333 319 240 226 221 221 218 176 158 158 154 187 200 169 172 214 246 317 310 285 268 207 175 206 167 153 244 262 249 218 175 185 232 241
212 211 211 211 207 202 202 203 204 203 204 205 206 207 202 188 180 181 125 155 220 239 213 219 211 190 195 191 161 135 120 139 118 71 42 26 35 133 262 291 218 138 132 100 73 73 98 106 110 127 304 109 196 267 316 341 292 245 221 219 185 169 178 179 204 221 126 139 242 275 294 265 260 261 253 223 186 152 139 162 276 266 222 177 177 205 210
216 214 212 212 210 207 205 205 206 207 205 202 202 206 204 193 184 177 117 100 189 233 231 199 173 161 170 187 169 154 154 168 150 102 42 13 15 332 277 315 6 41 48 69 92 91 90 120 150 158 192 191 175 220 291 113 328 336 7 131 151 175 183 157 178 214 148 162 224 232 235 249 251 253 257 210 151 132 102 59 292 262 210 177 175 189 194
223 220 218 215 214 212 210 209 208 207 205 201 198 201 203 198 189 180 148 106 201 238 247 162 136 129 137 130 160 169 150 141 138 122 141 165 112 352 313 344 18 29 58 92 84 76 102 118 107 127 214 204 151 169 239 136 156 302 36 102 149 173 170 158 186 217 211 210 229 232 239 255 245 227 218 184 137 91 80 4 271 253 196 172 169 184 206
222 222 222 221 219 215 212 210 208 207 209 204 198 199 202 200 197 189 163 113 190 238 273 201 157 170 189 167 163 176 147 124 116 103 107 118 137 178 203 20 41 325 332 114 100 96 129 157 141 152 221 252 138 163 201 147 165 202 138 115 133 182 193 194 210 225 222 219 230 251 263 247 219 199 188 171 99 64 106 228 239 201 186 186 174 189 206
222 222 221 219 217 214 213 213 210 210 211 205 198 198 202 202 201 194 169 115 190 226 276 298 142 180 229 162 119 121 146 129 126 123 118 134 228 174 139 45 206 271 10 91 112 125 145 205 227 135 173 241 188 161 186 175 173 164 140 134 145 159 176 225 219 221 225 225 228 257 275 237 179 163 189 161 124 146 222 226 199 166 186 195 191 204 206
224 222 220 217 215 213 213 214 211 209 211 206 198 196 201 205 204 199 191 173 145 230 271 274 239 241 263 142 146 151 124 103 113 134 146 189 191 136 115 247 210 89 62 150 169 170 156 196 230 142 162 217 199 138 163 228 225 172 160 174 187 165 161 220 227 194 175 214 219 227 260 222 146 127 96 218 192 212 217 208 195 184 182 184 198 213 206
223 222 220 218 218 216 214 214 213 209 209 207 200 196 200 207 206 206 209 205 149 130 258 256 242 240 240 226 215 192 155 167 183 158 135 184 189 148 152 200 174 132 163 171 164 206 183 171 192 177 173 215 206 159 157 202 283 245 163 140 185 181 168 197 227 188 151 188 215 214 228 193 151 149 175 210 211 208 165 156 200 212 187 182 200 219 211
221 221 220 218 219 219 216 216 214 210 209 207 202 196 199 206 205 207 213 212 190 204 249 280 283 258 251 248 246 246 241 228 208 166 131 135 202 172 135 151 162 169 177 137 127 173 192 156 162 167 170 194 208 204 169 154 238 269 175 119 213 221 193 176 197 199 173 187 215 222 203 171 181 189 195 206 218 212 161 158 189 209 204 191 194 219 219
219 220 220 218 219 219 217 216 213 212 212 208 201 196 197 203 203 203 207 208 207 241 258 273 288 286 275 258 241 235 243 248 213 175 160 153 168 239 131 144 166 180 164 145 150 156 159 168 165 148 169 192 161 150 211 209 215 228 210 229 251 235 186 140 148 236 235 218 211 206 186 183 207 216 214 213 221 205 168 179 212 222 214 200 195 215 221
220 219 218 218 218 216 215 215 213 212 212 208 201 199 200 202 198 194 192 194 207 244 261 258 251 243 244 242 232 224 223 218 201 190 184 176 166 179 245 208 177 150 202 207 171 115 119 168 154 126 192 207 152 143 197 231 224 191 168 265 287 265 151 137 193 217 225 247 217 197 196 198 203 215 227 240 249 233 192 191 217 226 219 211 210 218 222
219 217 216 217 217 216 215 215 214 213 212 210 204 199 198 200 197 190 184 179 186 190 224 255 241 226 226 233 232 224 223 221 214 207 202 195 185 182 199 193 174 168 187 187 144 100 105 137 122 145 206 215 174 168 201 216 208 186 181 214 260 251 137 145 213 216 207 240 242 220 214 230 225 217 223 237 249 250 235 215 221 232 233 229 221 217 220
217 216 216 216 215 215 215 215 216 215 214 212 207 202 201 204 202 195 188 174 116 159 214 251 275 221 210 213 224 226 226 225 222 216 208 206 207 203 184 154 138 141 117 108 127 131 126 122 126 169 212 220 171 170 197 207 167 166 215 221 191 121 151 170 198 213 233 263 256 240 253 281 267 245 232 231 234 242 246 241 236 237 243 246 240 226 218
217 215 215 215 215 214 213 212 215 216 215 212 209 209 211 210 206 203 197 185 157 152 219 216 287 197 190 201 219 223 223 222 219 214 204 201 204 197 174 149 134 132 108 81 62 108 109 128 180 188 203 212 162 157 186 189 128 125 238 236 139 143 220 188 149 194 235 243 237 217 203 255 255 243 238 237 231 231 240 248 247 240 239 243 246 244 236
216 215 215 215 215 215 214 212 212 215 216 212 208 212 217 215 212 211 205 195 188 178 169 181 179 132 186 220 222 215 216 219 213 206 200 198 194 186 172 157 149 149 139 139 147 122 142 186 192 187 192 178 156 183 174 123 111 167 238 233 198 208 221 196 173 214 238 239 230 206 194 233 250 250 248 245 228 213 222 235 240 238 237 235 235 243 247
211 210 212 213 213 214 214 214 213 214 213 209 204 208 219 221 219 218 211 203 202 200 61 135 210 45 140 216 211 205 209 213 209 203 199 194 189 186 181 170 168 169 154 142 153 162 189 193 176 184 195 162 149 182 178 154 178 222 236 236 232 232 229 212 203 222 241 248 240 207 186 222 242 244 248 251 236 212 215 227 234 237 239 236 229 233 239
204 202 206 210 209 209 209 211 212 211 206 199 190 182 204 228 222 218 213 208 206 201 129 168 221 218 124 170 186 198 204 204 204 203 199 191 191 197 193 184 179 163 135 141 179 178 178 198 200 211 199 169 157 165 175 184 210 231 237 241 242 241 235 219 210 220 235 246 243 197 177 215 236 242 254 258 246 220 215 227 232 232 235 236 228 226 232
197 196 201 205 203 202 204 206 206 205 198 188 175 160 9 239 221 216 212 208 204 197 170 229 202 114 338 236 201 199 197 193 194 201 201 200 208 208 195 185 182 170 166 182 198 183 183 202 206 203 194 180 166 147 163 187 222 240 238 239 242 242 239 228 220 225 235 246 247 200 177 220 233 240 259 259 247 223 212 230 235 230 231 232 228 229 235
197 196 197 201 202 204 207 203 196 197 198 192 186 181 135 86 114 207 204 200 195 185 140 217 202 170 242 241 231 204 191 186 187 194 199 202 205 201 192 188 187 186 187 186 178 195 211 210 200 201 197 173 148 139 188 200 221 237 237 239 242 242 240 238 234 233 235 236 234 235 250 249 237 224 237 251 249 219 205 231 242 237 235 239 239 241 245
201 198 195 198 201 202 206 205 199 202 206 205 206 214 211 186 14 205 190 188 184 168 158 181 182 203 212 283 334 192 172 166 175 192 198 195 180 167 188 192 176 179 196 193 189 207 215 202 203 211 191 131 128 166 207 213 227 235 238 241 248 250 246 240 238 241 240 225 207 211 235 246 244 230 229 244 249 228 217 228 239 239 237 240 245 245 243
199 199 196 196 198 200 204 209 206 202 200 202 211 222 225 233 260 195 174 178 170 88 174 174 125 193 202 7 359 184 164 146 168 196 190 171 155 152 176 180 169 194 204 189 180 210 218 200 205 206 166 132 164 195 215 223 229 235 240 245 251 256 256 249 236 240 241 226 200 210 229 244 258 260 224 230 241 236 223 216 216 217 222 232 237 234 220
193 198 196 195 198 201 203 204 200 194 189 188 195 202 214 227 239 209 186 187 175 45 203 186 134 178 183 354 309 205 169 151 169 182 172 157 153 155 157 158 179 204 198 152 147 202 205 180 172 181 165 159 184 208 225 229 231 234 240 245 248 254 255 248 239 241 238 204 186 220 234 240 254 259 247 240 240 235 225 214 200 201 219 238 238 222 202
188 190 191 193 194 192 193 196 192 186 177 164 158 167 190 205 213 208 201 199 200 207 194 156 155 187 185 202 241 208 153 147 158 156 152 139 130 147 158 172 192 204 164 119 177 208 197 150 128 177 183 178 208 224 230 233 235 233 229 234 240 244 244 244 246 249 235 172 185 221 229 222 231 242 244 246 245 230 218 217 203 200 223 240 234 215 201
183 180 180 182 180 171 163 185 191 190 186 171 158 156 162 164 166 184 197 201 210 218 173 143 211 209 170 181 221 172 139 155 147 130 144 146 145 160 162 173 192 189 133 170 202 202 177 147 164 200 202 208 228 235 235 236 238 233 224 231 239 240 243 247 249 250 241 213 215 226 223 218 228 235 237 245 246 218 201 215 214 205 219 233 229 210 197
172 172 170 159 144 146 181 187 185 185 181 173 163 154 146 138 138 173 192 189 199 196 168 183 221 195 118 124 189 165 153 148 129 140 164 153 145 148 131 180 199 181 170 213 206 146 118 157 198 213 217 224 236 243 242 239 237 232 229 236 241 243 245 244 232 219 226 238 242 236 220 219 235 237 230 237 240 222 211 223 223 210 218 229 218 188 179
164 160 152 136 138 181 190 179 175 170 166 163 157 141 102 114 137 167 190 189 191 183 181 209 213 182 157 177 206 188 154 140 144 175 188 177 185 187 180 203 197 161 188 227 193 126 150 208 208 212 224 229 236 242 242 237 233 233 235 238 243 246 245 237 214 205 214 229 241 238 217 208 225 231 224 226 236 236 227 223 216 207 206 199 171 154 155
154 141 118 149 180 161 151 163 168 163 153 146 141 111 122 186 185 160 158 180 195 196 194 200 201 186 181 186 200 211 169 148 152 171 182 197 206 162 151 211 197 156 193 224 184 145 183 203 182 205 225 229 234 239 238 231 231 235 235 236 242 247 244 229 212 209 215 227 243 244 224 210 220 227 221 215 223 232 229 213 191 171 155 146 141 138 139
148 144 142 156 154 146 148 156 160 153 128 95 150 137 143 197 227 114 134 167 195 236 231 153 155 185 192 182 183 200 188 146 126 133 160 203 225 118 137 220 244 133 193 217 172 127 143 177 185 215 228 233 237 239 231 220 228 235 237 239 244 243 226 205 202 204 209 221 232 237 219 195 203 223 230 213 205 205 197 169 147 138 137 136 132 129 131
166 159 144 135 135 139 143 144 141 94 83 121 151 175 179 174 144 122 199 195 191 210 242 170 171 186 184 167 172 201 206 152 118 120 157 207 213 133 140 211 255 160 206 221 109 92 117 206 221 231 236 241 244 241 225 221 229 234 238 240 234 209 190 194 197 197 209 221 215 188 127 109 93 58 61 126 126 115 118 134 136 131 129 128 128 128 132
165 151 136 126 124 126 133 138 127 103 124 140 159 175 175 163 120 160 207 235 213 167 205 214 185 165 153 147 151 174 180 159 149 148 180 197 155 114 131 198 200 186 190 84 90 137 194 215 226 236 241 245 245 238 231 233 233 230 236 255 199 165 180 184 171 145 89 86 120 127 120 106 89 77 93 115 111 97 90 113 131 131 127 127 128 130 135
145 137 125 102 81 131 155 176 151 138 174 197 182 169 180 193 181 175 193 217 210 196 197 177 147 155 186 189 128 107 167 170 146 138 190 186 124 131 181 206 201 176 75 86 156 199 224 232 236 241 246 250 247 238 233 232 225 208 194 53 59 89 113 123 127 121 100 96 108 113 108 102 95 85 84 99 113 115 110 113 125 131 131 131 131 133 141
121 119 106 90 185 180 156 145 123 149 190 201 185 178 194 196 185 191 206 198 163 168 179 157 145 155 179 197 137 144 167 159 136 165 175 150 141 182 197 195 172 138 138 173 197 219 244 242 240 240 242 247 251 243 225 214 201 179 164 143 122 137 140 135 133 130 122 119 120 115 109 107 101 89 81 88 109 125 128 130 135 138 135 133 133 136 145
111 162 128 138 204 203 154 154 164 170 211 213 193 182 192 192 188 196 203 170 140 162 172 159 152 160 171 182 213 159 146 137 161 182 152 131 173 203 184 122 119 148 175 202 213 220 228 234 237 236 238 245 250 239 170 155 156 153 156 165 168 154 135 124 122 122 120 122 120 115 111 110 108 104 99 96 102 116 127 133 138 140 136 133 135 141 149
150 151 111 153 207 168 145 192 201 186 192 201 193 191 196 190 176 183 192 164 156 157 146 120 117 156 172 157 150 198 187 163 174 180 145 130 171 202 77 95 177 194 195 209 220 226 230 234 238 245 252 254 240 154 132 137 147 148 149 150 144 134 122 117 119 121 123 124 119 112 111 113 113 112 110 105 104 113 122 125 129 132 131 131 138 147 154
160 144 134 180 180 172 192 192 154 129 170 237 232 220 201 156 138 157 198 165 144 139 133 125 121 122 349 58 108 170 228 195 176 184 158 125 132 137 105 179 220 221 205 211 221 228 234 241 251 276 308 328 103 145 151 152 148 140 130 126 132 133 129 123 122 123 126 126 120 116 119 120 119 120 120 117 114 118 124 127 128 130 132 134 141 151 158
68 97 133 156 130 183 213 161 135 164 244 313 351 9 101 122 156 193 202 121 120 133 142 140 134 139 210 13 73 95 233 211 177 157 117 124 172 186 169 180 208 223 220 217 223 234 254 286 306 314 331 355 31 97 116 107 110 114 116 121 129 128 123 122 123 125 126 126 124 125 126 126 125 126 127 126 125 128 133 134 131 131 137 144 147 153 161
67 80 129 145 140 190 234 105 143 201 237 286 309 262 121 129 176 215 209 127 126 118 105 109 120 126 130 100 98 160 228 216 177 142 148 193 200 182 153 191 213 219 223 230 244 275 309 324 322 319 333 0 25 52 83 94 97 99 104 110 113 113 117 122 122 119 119 123 126 128 127 128 132 134 133 134 136 136 135 136 138 142 151 158 155 156 170
104 99 97 119 153 183 171 145 166 202 218 210 206 211 195 174 192 221 200 127 124 109 103 140 141 98 77 116 173 190 190 96 122 161 209 214 174 146 176 221 223 217 225 240 252 299 326 328 338 335 336 357 28 45 63 83 96 101 104 108 110 110 112 114 113 113 116 120 124 125 124 124 128 131 130 131 133 131 125 126 140 147 149 147 146 157 216
93 130 77 36 46 86 116 129 172 203 212 210 211 208 183 188 214 250 330 128 141 151 169 161 120 115 148 187 188 151 78 71 154 187 212 225 187 179 202 222 220 206 220 237 219 83 357 339 352 352 343 3 48 78 93 99 99 97 100 108 111 111 111 113 114 116 117 119 121 123 123 123 126 128 128 127 128 128 126 130 136 139 139 136 130 101 316